Date String (YYYY-MM-DD hh:mm:ss) UTC,Instrument flags,Ambient pressure (hPa),Sample flow (lpm),Bypass flow (lpm),Sample temperature (°C),Ambient temperature (°C),ASC tube jacket temperature (°C),LED temperature (°C),Box temperature (°C),Sample RH (%),Span deviation,Mass concentration (μg/m³),Mass concentration (μg/m³),Mass concentration (μg/m³)
DateTimeUTC,F1_M11,P_M11,Q1_M11,Q2_M11,T1_M11,T2_M11,T3_M11,T4_M11,T5_M11,U1_M11,ZSPAN_M11,X2_M11,X0_M11,X1_M11
2022-08-11 17:00:00,,0832.2,5.00,0.00,29.3,27.9,00.0,38.0,31.2,33.1,0000.0,0006.68,0020.03,0004.93
2022-08-11 17:01:00,,0832.2,5.00,0.00,29.3,28.1,00.0,38.0,31.3,32.8,0000.0,0006.74,0019.97,0004.95
2022-08-11 17:02:00,,0832.1,5.01,0.00,29.3,28.1,00.0,38.0,31.3,32.4,0000.0,0006.76,0020.26,0004.97
2022-08-11 17:03:00,,0832.1,4.98,0.00,29.3,27.7,00.0,38.0,31.2,32.8,0000.0,0006.80,0020.83,0005.00
2022-08-11 17:04:00,,0832.1,5.01,0.00,29.3,27.3,00.0,38.0,31.1,32.6,0000.0,0006.74,0021.33,0005.01
2022-08-11 17:05:00,,0832.1,4.99,0.00,29.2,27.2,00.0,38.0,31.0,32.8,0000.0,0006.76,0022.16,0005.01
2022-08-11 17:06:00,,0832.1,5.01,0.00,29.2,27.3,00.0,38.0,31.0,33.0,0000.0,0006.79,0021.74,0005.02
2022-08-11 17:07:00,,0832.1,4.99,0.00,29.2,27.4,00.0,38.0,31.0,32.7,0000.0,0006.79,0020.75,0005.03
2022-08-11 17:08:00,,0832.1,5.00,0.00,29.2,27.6,00.0,38.0,31.1,32.8,0000.0,0006.73,0018.76,0005.03
2022-08-11 17:09:00,,0832.1,5.00,0.00,29.2,27.8,00.0,38.0,31.1,32.6,0000.0,0006.70,0017.58,0005.02
2022-08-11 17:10:00,,0832.1,5.00,0.00,29.3,28.0,00.0,38.0,31.2,32.2,0000.0,0006.67,0016.48,0005.02
2022-08-11 17:11:00,,0832.1,5.00,0.00,29.3,28.1,00.0,38.0,31.3,31.9,0000.0,0006.63,0015.77,0005.04
2022-08-11 17:12:00,,0832.1,5.01,0.00,29.3,27.9,00.0,38.0,31.3,32.3,0000.0,0006.64,0015.74,0005.06
2022-08-11 17:13:00,,0832.1,4.99,0.00,29.3,27.4,00.0,38.0,31.1,32.4,0000.0,0006.72,0016.31,0005.08
2022-08-11 17:14:00,,0832.1,5.00,0.00,29.3,27.1,00.0,38.0,31.1,32.3,0000.0,0006.75,0016.81,0005.07
2022-08-11 17:15:00,,0832.1,5.00,0.00,29.2,27.2,00.0,38.0,31.0,31.9,0000.0,0006.80,0016.41,0005.07
2022-08-11 17:16:00,,0832.1,4.99,0.00,29.2,27.3,00.0,38.0,31.0,32.5,0000.0,0006.84,0015.86,0005.06
2022-08-11 17:17:00,,0832.1,5.01,0.00,29.2,27.5,00.0,38.0,31.0,32.4,0000.0,0006.85,0016.08,0005.06
2022-08-11 17:18:00,,0832.1,5.00,0.00,29.2,27.7,00.0,38.0,31.1,32.6,0000.0,0006.91,0016.01,0005.08
2022-08-11 17:19:00,,0832.1,4.99,0.00,29.2,27.9,00.0,38.0,31.2,32.7,0000.0,0006.99,0016.36,0005.09
2022-08-11 17:20:00,,0832.1,5.00,0.00,29.3,28.0,00.0,38.0,31.2,32.9,0000.0,0007.03,0016.52,0005.09
2022-08-11 17:21:00,,0832.0,5.01,0.00,29.3,27.9,00.0,38.0,31.2,32.8,0000.0,0007.04,0017.55,0005.10
2022-08-11 17:22:00,,0832.0,4.99,0.00,29.3,27.3,00.0,38.0,31.0,33.0,0000.0,0007.02,0018.35,0005.10
2022-08-11 17:23:00,,0832.0,5.01,0.00,29.2,27.1,00.0,37.9,31.0,33.9,0000.0,0007.02,0019.34,0005.09
2022-08-11 17:24:00,,0831.9,5.01,0.00,29.2,27.1,00.0,37.9,31.0,34.1,0000.0,0006.99,0018.64,0005.08
2022-08-11 17:25:00,,0831.9,5.00,0.00,29.1,27.2,00.0,37.9,30.9,33.7,0000.0,0006.99,0017.90,0005.07
2022-08-11 17:26:00,,0832.0,4.99,0.00,29.1,27.4,00.0,37.9,30.9,33.7,0000.0,0006.96,0017.95,0005.07
2022-08-11 17:27:00,,0832.0,4.99,0.00,29.2,27.6,00.0,37.9,31.0,33.7,0000.0,0006.93,0018.45,0005.08
2022-08-11 17:28:00,,0832.0,5.01,0.00,29.2,27.8,00.0,37.9,31.1,33.4,0000.0,0006.90,0019.13,0005.07
2022-08-11 17:29:00,,0832.0,4.99,0.00,29.2,28.0,00.0,38.0,31.2,33.1,0000.0,0006.86,0018.90,0005.06
2022-08-11 17:30:00,,0831.8,4.99,0.00,29.3,28.1,00.0,38.0,31.3,32.8,0000.0,0006.86,0019.67,0005.07
2022-08-11 17:31:00,,0831.8,5.00,0.00,29.3,27.7,00.0,38.0,31.1,32.9,0000.0,0006.93,0020.17,0005.09
2022-08-11 17:32:00,,0831.7,5.00,0.00,29.2,27.2,00.0,37.9,31.0,32.9,0000.0,0006.97,0019.72,0005.11
2022-08-11 17:33:00,,0831.7,5.01,0.00,29.2,27.1,00.0,37.9,31.0,33.3,0000.0,0006.96,0019.06,0005.10
2022-08-11 17:34:00,,0831.7,5.00,0.00,29.1,27.2,00.0,37.9,30.9,33.4,0000.0,0007.00,0018.75,0005.11
2022-08-11 17:35:00,,0831.7,4.99,0.00,29.1,27.3,00.0,37.9,30.9,33.0,0000.0,0007.04,0018.59,0005.12
2022-08-11 17:36:00,,0831.7,5.01,0.00,29.1,27.5,00.0,37.9,31.0,32.6,0000.0,0006.97,0018.63,0005.15
2022-08-11 17:37:00,,0831.7,5.00,0.00,29.2,27.7,00.0,37.9,31.1,32.6,0000.0,0006.98,0019.09,0005.16
2022-08-11 17:38:00,,0831.7,4.99,0.00,29.2,27.9,00.0,37.9,31.2,32.8,0000.0,0006.97,0019.96,0005.16
2022-08-11 17:39:00,,0831.7,5.00,0.00,29.3,28.0,00.0,38.0,31.2,32.6,0000.0,0006.99,0019.22,0005.17
2022-08-11 17:40:00,,0831.7,5.00,0.00,29.3,27.7,00.0,37.9,31.2,32.2,0000.0,0007.01,0019.48,0005.16
2022-08-11 17:41:00,,0831.7,5.00,0.00,29.2,27.2,00.0,37.9,31.1,32.2,0000.0,0006.99,0018.89,0005.16
2022-08-11 17:42:00,,0831.8,5.01,0.00,29.2,27.1,00.0,37.9,31.0,32.2,0000.0,0006.92,0018.16,0005.15
2022-08-11 17:43:00,,0831.7,4.99,0.00,29.2,27.1,00.0,37.9,30.9,32.7,0000.0,0006.92,0017.95,0005.15
2022-08-11 17:44:00,,0831.8,5.01,0.00,29.1,27.3,00.0,37.9,30.9,32.9,0000.0,0006.96,0017.93,0005.16
2022-08-11 17:45:00,,0831.7,5.00,0.00,29.1,27.5,00.0,37.9,31.0,33.1,0000.0,0006.91,0017.29,0005.17
2022-08-11 17:46:00,,0831.7,5.01,0.00,29.2,27.7,00.0,37.9,31.1,34.1,0000.0,0006.86,0017.02,0005.16
2022-08-11 17:47:00,,0831.7,5.00,0.00,29.2,27.9,00.0,37.9,31.1,33.6,0000.0,0006.92,0017.35,0005.15
2022-08-11 17:48:00,,0831.7,5.00,0.00,29.2,28.0,00.0,37.9,31.2,33.7,0000.0,0006.92,0017.52,0005.13
2022-08-11 17:49:00,,0831.7,5.00,0.00,29.3,28.0,00.0,37.9,31.2,33.4,0000.0,0006.91,0017.03,0005.12
2022-08-11 17:50:00,,0831.7,5.00,0.00,29.3,27.5,00.0,37.9,31.1,33.2,0000.0,0006.92,0016.79,0005.13
2022-08-11 17:51:00,,0831.7,5.00,0.00,29.2,27.1,00.0,37.9,31.0,33.7,0000.0,0006.96,0017.16,0005.15
2022-08-11 17:52:00,,0831.7,5.00,0.00,29.2,27.1,00.0,37.9,31.0,34.0,0000.0,0007.00,0016.99,0005.17
2022-08-11 17:53:00,,0831.8,5.00,0.00,29.1,27.2,00.0,37.9,30.9,33.8,0000.0,0007.04,0017.08,0005.19
2022-08-11 17:54:00,,0831.7,4.99,0.00,29.1,27.4,00.0,37.9,30.9,33.8,0000.0,0007.03,0017.21,0005.20
2022-08-11 17:55:00,,0831.7,5.00,0.00,29.1,27.6,00.0,37.9,31.0,33.3,0000.0,0007.06,0017.16,0005.20
2022-08-11 17:56:00,,0831.7,5.00,0.00,29.2,27.8,00.0,37.9,31.1,33.0,0000.0,0007.16,0017.39,0005.22
2022-08-11 17:57:00,,0831.7,5.00,0.00,29.2,27.9,00.0,37.9,31.2,33.2,0000.0,0007.12,0017.67,0005.22
2022-08-11 17:58:00,,0831.7,5.00,0.00,29.2,28.0,00.0,37.9,31.2,32.4,0000.0,0007.06,0018.27,0005.24
2022-08-11 17:59:00,,0831.7,4.99,0.00,29.2,27.5,00.0,37.9,31.1,32.5,0000.0,0007.02,0017.42,0005.25
